Time,TemperatureF,DewpointF,PressureIn,WindDirection,WindDirectionDegrees,WindSpeedMPH,WindSpeedGustMPH,Humidity,HourlyPrecipIn,Conditions,Clouds,dailyrainin,SolarRadiationWatts/m^2,SoftwareType,DateUTC
2013-05-14 00:01:00,54.0,22.0,-100.00,ESE,117,0.0,5.0,28,0.00,,,0.00,0.000000,,2013-05-14 07:01:00,
2013-05-14 00:11:00,54.0,22.0,-100.00,ESE,117,0.0,5.0,28,0.00,,,0.00,0.000000,,2013-05-14 07:11:00,
2013-05-14 00:21:00,54.0,22.0,-100.00,ESE,117,0.0,5.0,28,0.00,,,0.00,0.000000,,2013-05-14 07:21:00,
2013-05-14 00:31:00,54.0,22.0,-100.00,ESE,117,0.0,5.0,28,0.00,,,0.00,0.000000,,2013-05-14 07:31:00,
2013-05-14 01:02:00,52.0,22.0,-100.00,South,169,0.0,0.0,31,0.00,,,0.00,0.000000,,2013-05-14 08:02:00,
2013-05-14 01:11:00,52.0,22.0,-100.00,South,169,0.0,0.0,31,0.00,,,0.00,0.000000,,2013-05-14 08:11:00,
2013-05-14 01:21:00,52.0,22.0,-100.00,South,169,0.0,0.0,31,0.00,,,0.00,0.000000,,2013-05-14 08:21:00,
2013-05-14 01:31:00,52.0,22.0,-100.00,South,169,0.0,0.0,31,0.00,,,0.00,0.000000,,2013-05-14 08:31:00,
2013-05-14 02:01:00,59.0,20.0,-100.00,SW,216,1.0,8.0,22,0.00,,,0.00,0.000000,,2013-05-14 09:01:00,
2013-05-14 02:11:00,59.0,20.0,-100.00,SW,216,1.0,8.0,22,0.00,,,0.00,0.000000,,2013-05-14 09:11:00,
2013-05-14 02:21:00,59.0,20.0,-100.00,SW,216,1.0,8.0,22,0.00,,,0.00,0.000000,,2013-05-14 09:21:00,
2013-05-14 02:32:00,59.0,20.0,-100.00,SW,216,1.0,8.0,22,0.00,,,0.00,0.000000,,2013-05-14 09:32:00,
2013-05-14 03:04:00,56.0,20.0,-100.00,South,191,0.0,8.0,24,0.00,,,0.00,0.000000,,2013-05-14 10:04:00,
2013-05-14 03:14:00,56.0,20.0,-100.00,South,191,0.0,8.0,24,0.00,,,0.00,0.000000,,2013-05-14 10:14:00,
2013-05-14 03:25:00,56.0,20.0,-100.00,South,191,0.0,8.0,24,0.00,,,0.00,0.000000,,2013-05-14 10:25:00,
2013-05-14 03:32:00,56.0,20.0,-100.00,South,191,0.0,8.0,24,0.00,,,0.00,0.000000,,2013-05-14 10:32:00,
2013-05-14 04:02:00,51.0,14.0,-100.00,SE,139,0.0,4.0,22,0.00,,,0.00,0.000000,,2013-05-14 11:02:00,
2013-05-14 05:02:00,50.0,12.0,-100.00,SE,133,0.0,0.0,21,0.00,,,0.00,0.000000,,2013-05-14 12:02:00,
2013-05-14 06:01:00,50.0,13.0,-100.00,SSW,200,0.0,0.0,22,0.00,,,0.00,0.000000,,2013-05-14 13:01:00,
2013-05-14 07:01:00,57.0,20.0,-100.00,SSW,206,2.0,8.0,23,0.00,,,0.00,15.000000,,2013-05-14 14:01:00,
2013-05-14 07:11:00,57.0,20.0,-100.00,SSW,206,2.0,8.0,23,0.00,,,0.00,15.000000,,2013-05-14 14:11:00,
2013-05-14 07:22:00,57.0,20.0,-100.00,SSW,206,2.0,8.0,23,0.00,,,0.00,15.000000,,2013-05-14 14:22:00,
2013-05-14 07:31:00,57.0,20.0,-100.00,SSW,206,2.0,8.0,23,0.00,,,0.00,15.000000,,2013-05-14 14:31:00,
2013-05-14 08:01:00,61.0,22.0,-100.00,SSW,198,2.0,8.0,22,0.00,,,0.00,97.000000,,2013-05-14 15:01:00,
2013-05-14 08:12:00,61.0,22.0,-100.00,SSW,198,2.0,8.0,22,0.00,,,0.00,97.000000,,2013-05-14 15:12:00,
2013-05-14 08:21:00,61.0,22.0,-100.00,SSW,198,2.0,8.0,22,0.00,,,0.00,97.000000,,2013-05-14 15:21:00,
2013-05-14 08:32:00,61.0,22.0,-100.00,SSW,198,2.0,8.0,22,0.00,,,0.00,97.000000,,2013-05-14 15:32:00,
2013-05-14 09:02:00,70.0,23.0,-100.00,South,185,2.0,9.0,17,0.00,,,0.00,545.000000,,2013-05-14 16:02:00,
2013-05-14 10:03:00,73.0,17.0,-100.00,South,179,5.0,10.0,12,-99.99,,,0.00,744.000000,,2013-05-14 17:03:00,
2013-05-14 11:02:00,75.0,15.0,-100.00,SSW,197,5.0,18.0,10,-99.99,,,0.00,1007.000000,,2013-05-14 18:02:00,
2013-05-14 12:01:00,77.0,14.0,-100.00,West,276,6.0,19.0,9,-99.99,,,0.00,1045.000000,,2013-05-14 19:01:00,
2013-05-14 13:02:00,77.0,16.0,-100.00,WSW,257,7.0,20.0,10,-99.99,,,-99.99,1173.000000,,2013-05-14 20:02:00,
2013-05-14 14:03:00,75.0,0.0,-100.00,SSW,205,10.0,22.0,5,-99.99,,,0.00,1310.000000,,2013-05-14 21:03:00,
2013-05-14 15:03:00,76.0,4.0,-100.00,SSW,199,10.0,22.0,6,-99.99,,,0.00,1239.000000,,2013-05-14 22:03:00,
2013-05-14 16:03:00,76.0,10.0,-100.00,South,182,6.0,28.0,8,-99.99,,,0.00,1118.000000,,2013-05-14 23:03:00,
2013-05-14 17:01:00,73.0,19.0,-100.00,North,7,5.0,17.0,13,-99.99,,,0.00,924.000000,,2013-05-15 00:01:00,
2013-05-14 18:01:00,67.0,21.0,-100.00,South,174,5.0,16.0,17,-99.99,,,0.00,618.000000,,2013-05-15 01:01:00,
2013-05-14 18:11:00,67.0,21.0,-100.00,South,174,5.0,16.0,17,-99.99,,,0.00,618.000000,,2013-05-15 01:11:00,
2013-05-14 18:21:00,67.0,21.0,-100.00,South,174,5.0,16.0,17,-99.99,,,0.00,618.000000,,2013-05-15 01:21:00,
2013-05-14 18:31:00,67.0,21.0,-100.00,South,174,5.0,16.0,17,-99.99,,,0.00,618.000000,,2013-05-15 01:31:00,
2013-05-14 19:01:00,61.0,16.0,-100.00,South,190,5.0,15.0,17,0.00,,,0.00,65.000000,,2013-05-15 02:01:00,
2013-05-14 19:11:00,61.0,16.0,-100.00,South,190,5.0,15.0,17,0.00,,,0.00,65.000000,,2013-05-15 02:11:00,
2013-05-14 20:01:00,57.0,17.0,-100.00,SSW,205,4.0,12.0,21,0.00,,,0.00,25.000000,,2013-05-15 03:01:00,
2013-05-14 21:03:00,57.0,11.0,-100.00,ESE,123,5.0,16.0,16,0.00,,,0.00,1.000000,,2013-05-15 04:03:00,
2013-05-14 22:02:00,52.0,15.0,-100.00,South,190,1.0,13.0,23,0.00,,,0.00,0.000000,,2013-05-15 05:02:00,
2013-05-14 22:12:00,52.0,15.0,-100.00,South,190,1.0,13.0,23,0.00,,,0.00,0.000000,,2013-05-15 05:12:00,
2013-05-14 22:22:00,52.0,15.0,-100.00,South,190,1.0,13.0,23,0.00,,,0.00,0.000000,,2013-05-15 05:22:00,
2013-05-14 22:32:00,52.0,15.0,-100.00,South,190,1.0,13.0,23,0.00,,,0.00,0.000000,,2013-05-15 05:32:00,
2013-05-14 23:02:00,51.0,11.0,-100.00,SSW,211,1.0,8.0,20,0.00,,,0.00,0.000000,,2013-05-15 06:02:00,